Tracking 18844 objects as of 21-Nov-2017
HD Live streaming from Space Station
objects crossing your sky now

COSMOS 1367

Track COSMOS 1367 now!
COSMOS 1367 is classified as:


NORAD ID: 13205
Int'l Code: 1982-045A
Perigee: 6,767.8 km
Apogee: 33,648.6 km
Inclination: 70.7 °
Period: 718.7 minutes
Semi major axis: 26579 km
RCS: 15.3973 m2 (large)
Launch date: May 20, 1982
Source: Commonwealth of Independent States (former USSR) (CIS)
Launch site: PLESETSK MISSILE AND SPACE COMPLEX (PKMTR)
aabbcc
Your satellite tracking list
Your tracking list is empty




NASA's NSSDC Master Catalog

Two Line Element Set (TLE):
1 13205U 82045A   17324.36697844 -.00000439 +00000-0 +00000-0 0  9991
2 13205 070.6615 203.0773 5056744 056.5985 200.0138 02.00350352260023
Source of the keplerian elements: AFSPC